Cloud_Cover
5 12 97 53 61 28 6 2 0 0 0 0 0 5 6 4 5 17 46 47 71 100 100 87 98 55 37 21 8 32 42 77 98 52 70 10 5 5 5 0 0 0 0 0
78 100 81 5 5 0 5 4 0 0 0 0 4 33 5 59 100 98 99 100 100 100 98 97 37 100 69 71 95 68 25 5 20 83 79 5 5 5 0 0 0 0 0 0
100 95 46 5 20 5 56 5 0 1 1 5 56 61 95 100 100 100 100 100 99 87 47 54 94 28 27 43 51 26 59 93 55 5 5 5 5 5 0 0 0 0 0 0
49 6 53 95 12 5 5 5 78 90 100 95 90 62 100 100 100 100 83 62 52 36 32 55 52 21 50 98 57 43 8 15 5 5 5 5 5 0 0 0 0 0 2 0
100 92 100 100 90 96 100 100 100 100 100 100 99 100 100 97 100 99 100 86 7 50 50 64 17 98 78 52 42 5 51 83 5 5 5 0 0 0 3 3 5 0 0 0
100 100 100 100 100 100 100 100 100 100 100 95 100 100 100 100 100 99 21 4 5 5 6 97 100 55 5 69 61 99 96 7 5 5 0 1 2 5 3 4 0 0 0 0
100 90 100 100 100 99 100 100 100 67 99 100 100 92 69 91 58 43 42 5 5 7 8 44 86 100 5 5 53 72 5 4 0 3 5 4 5 4 0 0 0 0 0 0
100 100 100 100 100 100 100 100 100 100 100 100 100 100 93 65 84 74 38 26 7 28 20 100 99 10 5 5 23 3 0 0 5 5 2 5 5 0 0 0 0 0 0 2
100 100 100 97 78 66 95 100 100 100 100 81 69 100 99 80 83 34 55 61 37 45 18 89 6 5 5 5 0 0 1 5 5 5 5 5 0 0 0 0 0 0 5 88
68 100 100 100 100 100 100 100 100 100 100 95 100 100 43 9 62 68 50 6 67 97 79 62 5 5 1 0 1 5 5 2 5 5 5 0 0 0 0 0 0 7 100 100
100 100 100 100 100 100 100 100 100 89 89 98 42 5 18 52 8 5 22 58 38 48 19 6 4 0 2 5 5 4 1 0 5 5 0 0 0 0 0 0 28 99 100 100
100 100 100 100 100 100 100 100 92 79 46 15 24 57 14 39 9 5 43 10 5 9 5 5 5 4 2 2 2 1 5 5 5 1 0 0 0 0 2 5 47 15 72 100
48 100 49 81 100 100 68 81 96 23 6 16 77 74 12 5 5 6 23 5 5 0 4 4 4 0 0 0 2 3 1 5 5 0 0 0 4 5 5 5 5 5 42 99
7 5 5 5 58 85 100 100 100 98 80 66 63 7 5 5 5 5 5 5 5 3 0 1 0 0 0 5 1 3 5 5 0 0 1 5 5 5 5 19 72 40 5 92
61 52 15 34 99 96 90 100 100 83 96 100 52 5 5 5 5 5 4 1 0 0 0 0 0 0 4 5 5 5 4 0 0 4 5 5 5 5 12 90 100 98 96 86
100 100 100 100 100 100 100 100 96 60 100 55 5 5 5 5 5 5 5 5 5 3 0 0 0 4 4 4 5 0 0 0 5 5 5 5 5 77 100 100 100 100 100 100
100 100 100 100 99 74 29 5 5 19 100 15 5 5 5 5 5 5 5 5 4 0 0 2 0 5 5 0 0 1 0 3 5 4 5 5 69 100 100 100 100 100 100 100
76 37 58 88 77 6 5 5 5 60 89 5 11 8 45 42 5 5 5 0 2 3 2 0 0 0 0 0 0 0 2 5 5 5 5 82 100 99 64 92 100 100 100 93
72 93 76 19 5 5 5 5 5 5 5 14 5 5 5 5 5 4 2 5 5 4 1 3 4 0 0 1 0 0 1 5 5 12 98 97 93 100 94 99 100 100 100 100
91 23 5 5 5 5 5 5 5 5 5 5 5 5 5 5 5 5 5 5 5 5 2 3 0 0 0 0 4 5 5 5 61 86 98 94 17 5 49 50 100 100 100 100
42 8 5 5 6 5 5 5 5 5 6 5 5 5 5 5 5 5 5 5 34 5 5 5 0 0 0 3 8 59 23 5 17 75 28 5 5 13 88 100 100 100 100 100
89 97 76 59 51 16 5 5 5 5 5 5 5 8 29 19 5 23 33 17 5 5 5 1 2 5 5 16 25 5 5 5 5 5 5 5 52 100 100 100 100 100 100 100
100 100 100 100 93 38 5 5 5 5 6 40 38 20 8 5 39 54 8 80 18 5 5 5 5 5 5 5 5 5 3 1 5 5 5 61 99 100 100 100 100 100 100 100
100 100 91 20 5 5 5 5 7 5 5 5 66 64 43 10 92 83 37 5 5 5 5 5 4 5 5 3 0 0 4 5 5 5 55 94 86 100 100 100 100 100 96 99
68 30 13 7 5 5 5 5 5 5 5 53 72 72 79 53 9 28 56 5 5 5 5 4 5 5 0 1 5 5 5 5 17 99 100 94 96 100 100 100 100 100 100 97
67 16 56 14 5 5 5 5 5 7 64 75 74 73 78 76 62 5 5 5 5 4 5 5 1 5 5 5 5 5 5 5 73 97 100 89 93 100 100 100 100 98 98 98
63 33 11 5 6 5 5 5 37 76 87 96 95 65 69 80 47 5 5 5 5 5 3 4 5 5 5 5 5 5 46 84 100 100 100 100 98 100 100 100 100 97 97 100